Location: Commenchon
(49.6411°N, 3.1571°E)
Time: 10:24:43
(UTC+00:00)

ADEOS - Pass Details

Date: 15 May 2026
Orbit: 789 x 792 km, 98.8° (Epoch: 5 June)

Event Time Altitude Azimuth Distance (km) Brightness Sun altitude
Exits shadow 20:25:06 - 174° (S) 3,071 6.2 -8.5°
Reaches altitude 10° 20:26:55 10° 177° (S) 2,353 5.6 -8.7°
Maximum altitude 20:32:04 62° 258° (WSW) 893 4.0 -9.3°
Drops below altitude 10° 20:37:15 10° 339° (NNW) 2,369 7.2 -9.9°
Sets 20:39:37 0° 343° (NNW) 3,302 8.0 -10.2°
